QPF
0.01 0.00 0.00 0.01 0.01 0.00 0.00 0.00 0.00 0.00 0.00 0.00 0.00 0.00 0.00 0.00 0.00 0.01 0.00 0.00 0.00 0.00 0.01 0.01 0.01 0.01 0.01 0.02 0.03 0.03 0.03 0.02 0.04 0.03 0.02 0.02 0.02 0.02 0.02 0.01 0.01 0.01 0.01 0.02 0.02 0.01 0.01 0.01 0.01
0.01 0.00 0.01 0.01 0.00 0.00 0.00 0.00 0.00 0.00 0.00 0.00 0.00 0.00 0.00 0.00 0.00 0.00 0.00 0.00 0.00 0.00 0.01 0.01 0.01 0.01 0.01 0.01 0.02 0.02 0.02 0.02 0.03 0.04 0.03 0.02 0.02 0.02 0.02 0.01 0.02 0.01 0.01 0.01 0.01 0.01 0.01 0.01 0.01
0.01 0.01 0.01 0.01 0.00 0.00 0.00 0.00 0.00 0.00 0.00 0.00 0.00 0.00 0.00 0.00 0.00 0.00 0.00 0.00 0.01 0.00 0.01 0.01 0.01 0.01 0.01 0.02 0.03 0.02 0.02 0.03 0.03 0.03 0.02 0.02 0.02 0.03 0.03 0.02 0.01 0.01 0.01 0.01 0.01 0.01 0.01 0.01 0.01
0.01 0.01 0.01 0.01 0.00 0.00 0.00 0.00 0.00 0.00 0.00 0.00 0.00 0.00 0.00 0.00 0.00 0.00 0.00 0.00 0.00 0.00 0.01 0.01 0.01 0.01 0.02 0.03 0.03 0.03 0.03 0.03 0.02 0.02 0.02 0.02 0.03 0.03 0.03 0.02 0.02 0.01 0.02 0.02 0.01 0.01 0.01 0.01 0.00
0.01 0.01 0.01 0.00 0.00 0.00 0.00 0.00 0.00 0.00 0.00 0.00 0.00 0.00 0.00 0.00 0.00 0.00 0.00 0.00 0.00 0.01 0.01 0.01 0.01 0.02 0.03 0.03 0.03 0.03 0.03 0.04 0.03 0.02 0.02 0.02 0.02 0.02 0.02 0.02 0.01 0.01 0.01 0.02 0.02 0.01 0.01 0.01 0.00
0.02 0.01 0.00 0.00 0.00 0.00 0.00 0.00 0.00 0.00 0.00 0.00 0.00 0.00 0.00 0.00 0.00 0.01 0.01 0.01 0.01 0.01 0.01 0.01 0.01 0.02 0.03 0.04 0.04 0.04 0.03 0.03 0.03 0.02 0.02 0.02 0.02 0.02 0.01 0.01 0.01 0.01 0.01 0.01 0.01 0.01 0.00 0.00 0.01
0.01 0.01 0.00 0.00 0.00 0.00 0.00 0.00 0.00 0.00 0.00 0.00 0.00 0.00 0.00 0.00 0.01 0.01 0.01 0.02 0.02 0.02 0.02 0.01 0.01 0.02 0.03 0.04 0.04 0.04 0.03 0.03 0.03 0.02 0.02 0.01 0.01 0.01 0.01 0.01 0.01 0.01 0.01 0.01 0.01 0.01 0.00 0.00 0.00
0.01 0.01 0.00 0.00 0.00 0.00 0.00 0.00 0.00 0.00 0.00 0.00 0.00 0.00 0.00 0.00 0.00 0.01 0.01 0.02 0.02 0.04 0.04 0.03 0.03 0.02 0.03 0.03 0.03 0.03 0.02 0.02 0.02 0.01 0.01 0.01 0.00 0.01 0.01 0.01 0.01 0.01 0.01 0.01 0.01 0.01 0.02 0.01 0.00
0.01 0.01 0.00 0.00 0.00 0.00 0.00 0.00 0.00 0.00 0.00 0.00 0.00 0.00 0.00 0.00 0.00 0.01 0.02 0.03 0.03 0.05 0.07 0.05 0.04 0.03 0.04 0.04 0.02 0.02 0.02 0.02 0.01 0.00 0.00 0.00 0.01 0.02 0.02 0.01 0.01 0.01 0.01 0.01 0.01 0.01 0.01 0.01 0.00
0.02 0.01 0.00 0.00 0.00 0.00 0.00 0.00 0.00 0.00 0.00 0.00 0.00 0.00 0.00 0.00 0.01 0.01 0.01 0.02 0.03 0.04 0.06 0.06 0.05 0.04 0.05 0.04 0.04 0.04 0.03 0.02 0.02 0.01 0.01 0.02 0.03 0.03 0.02 0.02 0.00 0.00 0.00 0.00 0.00 0.00 0.01 0.01 0.01
0.01 0.00 0.00 0.00 0.00 0.00 0.00 0.00 0.00 0.00 0.00 0.00 0.00 0.00 0.00 0.00 0.01 0.01 0.01 0.02 0.02 0.03 0.04 0.06 0.06 0.04 0.05 0.06 0.05 0.06 0.05 0.04 0.03 0.03 0.03 0.03 0.03 0.03 0.03 0.03 0.01 0.02 0.01 0.01 0.01 0.01 0.02 0.03 0.03
0.01 0.00 0.00 0.00 0.00 0.00 0.00 0.00 0.00 0.00 0.00 0.00 0.00 0.00 0.00 0.00 0.00 0.01 0.01 0.01 0.02 0.02 0.03 0.05 0.07 0.06 0.06 0.06 0.04 0.04 0.04 0.03 0.03 0.04 0.03 0.03 0.04 0.05 0.05 0.05 0.03 0.03 0.03 0.04 0.05 0.05 0.05 0.04 0.04
0.01 0.00 0.00 0.00 0.00 0.00 0.00 0.00 0.00 0.00 0.00 0.00 0.00 0.00 0.00 0.00 0.00 0.01 0.01 0.02 0.02 0.02 0.03 0.04 0.06 0.07 0.07 0.08 0.05 0.03 0.03 0.03 0.03 0.03 0.03 0.03 0.04 0.04 0.03 0.03 0.02 0.02 0.02 0.03 0.03 0.03 0.02 0.02 0.02
0.01 0.01 0.00 0.00 0.00 0.00 0.00 0.00 0.00 0.00 0.00 0.00 0.00 0.00 0.00 0.00 0.00 0.01 0.02 0.02 0.01 0.02 0.03 0.04 0.06 0.06 0.06 0.07 0.07 0.06 0.04 0.03 0.03 0.03 0.02 0.02 0.02 0.02 0.02 0.01 0.01 0.01 0.01 0.01 0.01 0.00 0.01 0.01 0.01
0.01 0.01 0.01 0.00 0.00 0.00 0.00 0.00 0.00 0.00 0.00 0.00 0.00 0.00 0.00 0.00 0.00 0.01 0.02 0.02 0.01 0.02 0.03 0.04 0.05 0.05 0.05 0.05 0.05 0.05 0.05 0.04 0.03 0.02 0.02 0.02 0.02 0.02 0.01 0.01 0.01 0.00 0.01 0.01 0.01 0.00 0.00 0.00 0.00
0.02 0.02 0.02 0.01 0.00 0.00 0.00 0.00 0.00 0.00 0.00 0.00 0.00 0.00 0.00 0.00 0.00 0.01 0.02 0.03 0.02 0.04 0.03 0.04 0.04 0.03 0.04 0.04 0.05 0.04 0.03 0.03 0.02 0.02 0.02 0.02 0.02 0.02 0.02 0.01 0.01 0.00 0.00 0.00 0.00 0.00 0.00 0.00 0.00
0.03 0.02 0.01 0.01 0.00 0.00 0.00 0.00 0.00 0.00 0.00 0.00 0.00 0.00 0.00 0.00 0.01 0.01 0.01 0.02 0.02 0.03 0.03 0.03 0.03 0.04 0.04 0.03 0.04 0.04 0.04 0.03 0.02 0.01 0.02 0.02 0.02 0.02 0.02 0.01 0.01 0.00 0.00 0.00 0.00 0.00 0.00 0.00 0.00
0.02 0.01 0.01 0.00 0.00 0.00 0.00 0.00 0.00 0.00 0.00 0.00 0.00 0.00 0.00 0.00 0.00 0.01 0.01 0.03 0.04 0.04 0.03 0.03 0.04 0.04 0.03 0.02 0.02 0.03 0.03 0.03 0.02 0.01 0.01 0.01 0.02 0.02 0.02 0.01 0.01 0.01 0.01 0.00 0.00 0.00 0.00 0.00 0.00
0.01 0.01 0.00 0.00 0.00 0.00 0.00 0.00 0.00 0.00 0.00 0.00 0.00 0.00 0.00 0.00 0.00 0.00 0.01 0.04 0.05 0.02 0.02 0.03 0.03 0.03 0.02 0.02 0.02 0.01 0.01 0.01 0.02 0.03 0.02 0.01 0.01 0.01 0.02 0.01 0.01 0.01 0.00 0.01 0.00 0.00 0.00 0.00 0.00
0.02 0.01 0.01 0.01 0.00 0.00 0.00 0.00 0.00 0.00 0.00 0.00 0.00 0.00 0.00 0.00 0.00 0.00 0.01 0.03 0.04 0.02 0.02 0.01 0.02 0.02 0.02 0.02 0.01 0.01 0.01 0.01 0.02 0.03 0.04 0.04 0.03 0.01 0.01 0.02 0.02 0.01 0.01 0.00 0.00 0.00 0.00 0.00 0.00
0.03 0.02 0.01 0.01 0.01 0.01 0.01 0.00 0.00 0.00 0.00 0.00 0.00 0.00 0.00 0.00 0.00 0.00 0.01 0.02 0.03 0.02 0.02 0.02 0.02 0.01 0.01 0.01 0.01 0.01 0.01 0.01 0.01 0.01 0.01 0.03 0.04 0.04 0.03 0.02 0.02 0.02 0.01 0.01 0.00 0.00 0.00 0.00 0.00
0.03 0.03 0.02 0.02 0.02 0.02 0.01 0.01 0.00 0.00 0.00 0.00 0.00 0.00 0.00 0.00 0.00 0.00 0.01 0.02 0.02 0.02 0.02 0.02 0.02 0.01 0.01 0.00 0.01 0.01 0.01 0.01 0.01 0.01 0.01 0.01 0.01 0.01 0.02 0.03 0.03 0.03 0.02 0.01 0.01 0.00 0.00 0.00 0.00
0.01 0.02 0.02 0.03 0.03 0.03 0.01 0.01 0.00 0.00 0.00 0.00 0.00 0.00 0.00 0.00 0.00 0.00 0.00 0.02 0.02 0.01 0.01 0.01 0.02 0.01 0.01 0.02 0.02 0.01 0.01 0.01 0.01 0.01 0.01 0.00 0.00 0.00 0.00 0.01 0.01 0.03 0.03 0.04 0.04 0.02 0.01 0.00 0.00
0.02 0.03 0.03 0.03 0.05 0.05 0.02 0.01 0.00 0.00 0.00 0.00 0.00 0.00 0.00 0.00 0.00 0.00 0.00 0.01 0.02 0.01 0.01 0.00 0.01 0.01 0.02 0.01 0.01 0.01 0.01 0.00 0.00 0.00 0.00 0.00 0.00 0.00 0.00 0.00 0.00 0.00 0.01 0.01 0.03 0.04 0.03 0.02 0.02
0.04 0.06 0.09 0.10 0.08 0.04 0.01 0.02 0.01 0.00 0.00 0.00 0.00 0.00 0.00 0.00 0.00 0.00 0.00 0.00 0.01 0.01 0.00 0.00 0.00 0.01 0.01 0.01 0.01 0.01 0.00 0.00 0.00 0.00 0.00 0.00 0.00 0.00 0.00 0.00 0.00 0.00 0.00 0.00 0.00 0.01 0.02 0.02 0.02
0.05 0.04 0.04 0.05 0.03 0.01 0.01 0.03 0.02 0.00 0.00 0.00 0.00 0.00 0.00 0.00 0.00 0.00 0.00 0.00 0.00 0.01 0.01 0.00 0.01 0.01 0.01 0.01 0.01 0.01 0.00 0.00 0.00 0.00 0.00 0.00 0.00 0.00 0.00 0.00 0.00 0.00 0.00 0.00 0.00 0.00 0.00 0.01 0.01
0.05 0.04 0.02 0.02 0.02 0.01 0.01 0.02 0.01 0.00 0.00 0.00 0.00 0.00 0.00 0.00 0.00 0.00 0.00 0.00 0.00 0.00 0.00 0.01 0.02 0.02 0.01 0.01 0.00 0.00 0.00 0.00 0.00 0.00 0.00 0.00 0.00 0.00 0.00 0.00 0.00 0.00 0.00 0.00 0.00 0.00 0.00 0.00 0.00
0.04 0.03 0.02 0.02 0.02 0.02 0.01 0.01 0.01 0.00 0.00 0.00 0.00 0.00 0.00 0.00 0.00 0.01 0.00 0.00 0.00 0.00 0.00 0.01 0.02 0.02 0.02 0.01 0.00 0.00 0.00 0.00 0.00 0.00 0.00 0.00 0.00 0.00 0.00 0.00 0.00 0.00 0.00 0.00 0.00 0.00 0.00 0.00 0.00
0.03 0.05 0.03 0.02 0.02 0.02 0.02 0.02 0.01 0.00 0.00 0.00 0.00 0.00 0.00 0.00 0.00 0.01 0.00 0.00 0.00 0.00 0.01 0.02 0.02 0.02 0.02 0.01 0.00 0.00 0.00 0.00 0.00 0.00 0.00 0.00 0.00 0.00 0.00 0.00 0.00 0.00 0.00 0.00 0.00 0.00 0.00 0.00 0.00
0.01 0.03 0.04 0.03 0.02 0.01 0.02 0.02 0.01 0.00 0.00 0.00 0.00 0.00 0.00 0.00 0.00 0.00 0.00 0.00 0.00 0.00 0.01 0.02 0.03 0.02 0.02 0.01 0.00 0.00 0.00 0.00 0.00 0.00 0.00 0.00 0.00 0.00 0.00 0.00 0.00 0.00 0.00 0.00 0.00 0.00 0.00 0.00 0.00
MSLP
1012.76 1013.10 1013.41 1013.59 1013.55 1013.26 1012.71 1011.96 1011.08 1010.19 1009.39 1008.75 1008.31 1008.06 1007.95 1007.93 1007.95 1007.96 1007.95 1007.96 1008.01 1008.15 1008.42 1008.83 1009.36 1009.97 1010.60 1011.19 1011.72 1012.15 1012.51 1012.81 1013.09 1013.39 1013.72 1014.08 1014.45 1014.81 1015.13 1015.39 1015.59 1015.75 1015.88 1016.02 1016.16 1016.32 1016.46 1016.57 1016.63
1013.09 1013.41 1013.64 1013.67 1013.45 1012.96 1012.22 1011.32 1010.35 1009.43 1008.65 1008.07 1007.71 1007.53 1007.47 1007.49 1007.51 1007.52 1007.52 1007.53 1007.62 1007.83 1008.18 1008.68 1009.31 1009.99 1010.67 1011.30 1011.83 1012.26 1012.61 1012.92 1013.21 1013.53 1013.89 1014.28 1014.67 1015.04 1015.36 1015.61 1015.80 1015.95 1016.08 1016.21 1016.35 1016.50 1016.64 1016.73 1016.76
1013.38 1013.64 1013.74 1013.62 1013.22 1012.55 1011.67 1010.67 1009.66 1008.77 1008.05 1007.56 1007.28 1007.18 1007.17 1007.19 1007.21 1007.20 1007.18 1007.20 1007.32 1007.58 1008.01 1008.59 1009.29 1010.04 1010.76 1011.41 1011.95 1012.38 1012.73 1013.04 1013.36 1013.70 1014.08 1014.49 1014.90 1015.28 1015.59 1015.84 1016.02 1016.16 1016.28 1016.42 1016.56 1016.71 1016.84 1016.92 1016.93
1013.58 1013.74 1013.70 1013.41 1012.85 1012.04 1011.08 1010.04 1009.07 1008.24 1007.63 1007.25 1007.07 1007.02 1007.04 1007.07 1007.06 1007.02 1006.98 1007.00 1007.14 1007.45 1007.93 1008.58 1009.33 1010.12 1010.87 1011.53 1012.07 1012.51 1012.86 1013.19 1013.52 1013.89 1014.30 1014.73 1015.16 1015.54 1015.86 1016.10 1016.28 1016.42 1016.55 1016.68 1016.83 1016.97 1017.10 1017.17 1017.18
1013.63 1013.67 1013.49 1013.05 1012.36 1011.47 1010.48 1009.47 1008.58 1007.87 1007.39 1007.13 1007.04 1007.05 1007.09 1007.10 1007.07 1006.99 1006.93 1006.95 1007.10 1007.44 1007.96 1008.65 1009.43 1010.24 1011.00 1011.66 1012.20 1012.64 1013.00 1013.35 1013.71 1014.11 1014.55 1015.01 1015.46 1015.86 1016.18 1016.43 1016.61 1016.76 1016.89 1017.03 1017.17 1017.31 1017.43 1017.50 1017.51
1013.51 1013.43 1013.12 1012.56 1011.78 1010.86 1009.89 1008.97 1008.20 1007.63 1007.29 1007.15 1007.14 1007.20 1007.25 1007.24 1007.18 1007.08 1007.00 1007.02 1007.19 1007.55 1008.10 1008.80 1009.59 1010.39 1011.14 1011.79 1012.33 1012.78 1013.16 1013.53 1013.93 1014.37 1014.84 1015.33 1015.80 1016.21 1016.55 1016.81 1017.01 1017.16 1017.30 1017.44 1017.58 1017.71 1017.82 1017.88 1017.89
1013.23 1013.03 1012.60 1011.96 1011.15 1010.25 1009.35 1008.55 1007.92 1007.51 1007.30 1007.25 1007.31 1007.39 1007.44 1007.42 1007.34 1007.23 1007.15 1007.18 1007.37 1007.75 1008.31 1009.01 1009.79 1010.58 1011.31 1011.94 1012.48 1012.93 1013.34 1013.75 1014.18 1014.66 1015.17 1015.68 1016.17 1016.60 1016.95 1017.22 1017.43 1017.59 1017.73 1017.86 1018.00 1018.12 1018.21 1018.26 1018.28
1012.82 1012.51 1012.00 1011.31 1010.51 1009.67 1008.88 1008.22 1007.73 1007.45 1007.35 1007.38 1007.47 1007.56 1007.60 1007.57 1007.48 1007.38 1007.32 1007.38 1007.60 1008.00 1008.57 1009.27 1010.03 1010.79 1011.49 1012.11 1012.64 1013.11 1013.54 1013.98 1014.45 1014.96 1015.50 1016.03 1016.53 1016.97 1017.32 1017.60 1017.82 1017.98 1018.13 1018.25 1018.37 1018.48 1018.56 1018.60 1018.62
1012.31 1011.92 1011.36 1010.67 1009.91 1009.16 1008.50 1007.97 1007.62 1007.45 1007.42 1007.48 1007.57 1007.65 1007.67 1007.63 1007.55 1007.48 1007.47 1007.58 1007.85 1008.28 1008.86 1009.55 1010.28 1011.01 1011.68 1012.29 1012.82 1013.30 1013.76 1014.23 1014.73 1015.27 1015.81 1016.35 1016.85 1017.28 1017.64 1017.92 1018.14 1018.31 1018.45 1018.57 1018.68 1018.77 1018.83 1018.87 1018.89
1011.76 1011.31 1010.72 1010.06 1009.38 1008.75 1008.22 1007.83 1007.58 1007.48 1007.48 1007.54 1007.60 1007.64 1007.63 1007.58 1007.52 1007.50 1007.56 1007.74 1008.07 1008.55 1009.15 1009.83 1010.54 1011.24 1011.89 1012.48 1013.01 1013.51 1013.99 1014.49 1015.01 1015.55 1016.09 1016.62 1017.10 1017.52 1017.87 1018.15 1018.37 1018.54 1018.69 1018.80 1018.90 1018.98 1019.04 1019.08 1019.12
1011.18 1010.69 1010.11 1009.51 1008.94 1008.44 1008.05 1007.78 1007.62 1007.55 1007.54 1007.55 1007.56 1007.53 1007.48 1007.43 1007.40 1007.44 1007.58 1007.85 1008.25 1008.79 1009.41 1010.10 1010.80 1011.48 1012.11 1012.69 1013.22 1013.73 1014.23 1014.73 1015.25 1015.78 1016.30 1016.81 1017.26 1017.67 1018.01 1018.28 1018.51 1018.69 1018.85 1018.97 1019.08 1019.16 1019.23 1019.28 1019.33
1010.59 1010.08 1009.54 1009.02 1008.58 1008.22 1007.97 1007.81 1007.71 1007.65 1007.60 1007.54 1007.45 1007.35 1007.26 1007.19 1007.20 1007.30 1007.53 1007.90 1008.39 1008.98 1009.65 1010.35 1011.05 1011.71 1012.34 1012.91 1013.44 1013.95 1014.45 1014.95 1015.45 1015.96 1016.45 1016.91 1017.34 1017.72 1018.05 1018.33 1018.58 1018.78 1018.96 1019.11 1019.24 1019.35 1019.43 1019.51 1019.59
1009.98 1009.46 1008.98 1008.58 1008.28 1008.08 1007.96 1007.89 1007.84 1007.78 1007.66 1007.51 1007.32 1007.13 1006.98 1006.90 1006.94 1007.11 1007.43 1007.88 1008.46 1009.12 1009.83 1010.56 1011.26 1011.93 1012.55 1013.13 1013.66 1014.17 1014.66 1015.14 1015.61 1016.08 1016.53 1016.95 1017.35 1017.71 1018.04 1018.34 1018.61 1018.85 1019.07 1019.26 1019.43 1019.58 1019.70 1019.82 1019.94
1009.33 1008.84 1008.43 1008.15 1008.01 1007.96 1007.98 1008.00 1007.99 1007.89 1007.71 1007.46 1007.17 1006.89 1006.68 1006.58 1006.64 1006.87 1007.27 1007.81 1008.47 1009.19 1009.95 1010.71 1011.44 1012.12 1012.75 1013.33 1013.86 1014.37 1014.84 1015.30 1015.74 1016.16 1016.56 1016.94 1017.31 1017.66 1018.00 1018.33 1018.64 1018.93 1019.20 1019.45 1019.67 1019.87 1020.04 1020.21 1020.37
1008.66 1008.19 1007.88 1007.73 1007.73 1007.84 1007.98 1008.08 1008.09 1007.96 1007.71 1007.36 1006.97 1006.62 1006.35 1006.24 1006.32 1006.60 1007.06 1007.68 1008.40 1009.19 1009.99 1010.79 1011.54 1012.25 1012.90 1013.49 1014.04 1014.54 1015.00 1015.43 1015.83 1016.20 1016.56 1016.92 1017.26 1017.61 1017.97 1018.33 1018.68 1019.03 1019.36 1019.67 1019.94 1020.20 1020.43 1020.64 1020.86
1007.97 1007.54 1007.31 1007.29 1007.43 1007.67 1007.91 1008.07 1008.09 1007.93 1007.61 1007.18 1006.72 1006.30 1006.00 1005.88 1005.98 1006.29 1006.81 1007.48 1008.26 1009.09 1009.94 1010.77 1011.56 1012.30 1012.98 1013.61 1014.17 1014.68 1015.13 1015.54 1015.91 1016.25 1016.57 1016.90 1017.23 1017.59 1017.96 1018.35 1018.75 1019.15 1019.53 1019.89 1020.22 1020.52 1020.80 1021.07 1021.32
1007.29 1006.91 1006.76 1006.84 1007.09 1007.42 1007.73 1007.92 1007.93 1007.73 1007.36 1006.87 1006.36 1005.90 1005.59 1005.48 1005.61 1005.97 1006.52 1007.23 1008.04 1008.91 1009.79 1010.65 1011.48 1012.26 1012.98 1013.64 1014.23 1014.76 1015.23 1015.63 1015.98 1016.29 1016.60 1016.91 1017.24 1017.59 1017.98 1018.40 1018.83 1019.26 1019.68 1020.07 1020.44 1020.78 1021.10 1021.41 1021.70
1006.65 1006.31 1006.24 1006.40 1006.71 1007.09 1007.41 1007.59 1007.57 1007.33 1006.92 1006.40 1005.87 1005.42 1005.14 1005.07 1005.23 1005.63 1006.22 1006.95 1007.78 1008.66 1009.55 1010.43 1011.28 1012.10 1012.87 1013.57 1014.21 1014.78 1015.26 1015.68 1016.03 1016.34 1016.64 1016.94 1017.27 1017.64 1018.04 1018.47 1018.92 1019.36 1019.79 1020.20 1020.59 1020.95 1021.29 1021.62 1021.94
1006.08 1005.80 1005.77 1005.97 1006.30 1006.67 1006.96 1007.08 1007.01 1006.72 1006.28 1005.76 1005.26 1004.86 1004.64 1004.64 1004.87 1005.31 1005.93 1006.67 1007.49 1008.36 1009.24 1010.11 1010.98 1011.82 1012.63 1013.39 1014.08 1014.70 1015.23 1015.68 1016.05 1016.38 1016.69 1017.00 1017.34 1017.71 1018.11 1018.55 1018.99 1019.43 1019.86 1020.26 1020.64 1021.00 1021.35 1021.69 1022.02
1005.60 1005.36 1005.37 1005.57 1005.87 1006.16 1006.37 1006.41 1006.25 1005.92 1005.47 1004.98 1004.55 1004.26 1004.15 1004.25 1004.57 1005.07 1005.70 1006.43 1007.22 1008.04 1008.88 1009.73 1010.58 1011.43 1012.27 1013.08 1013.83 1014.51 1015.10 1015.59 1016.01 1016.38 1016.71 1017.05 1017.40 1017.78 1018.19 1018.62 1019.05 1019.48 1019.88 1020.26 1020.62 1020.96 1021.30 1021.64 1021.97
1005.18 1005.00 1005.02 1005.19 1005.41 1005.60 1005.68 1005.61 1005.37 1005.00 1004.57 1004.15 1003.84 1003.69 1003.73 1003.97 1004.38 1004.94 1005.59 1006.29 1007.02 1007.76 1008.52 1009.30 1010.11 1010.95 1011.80 1012.64 1013.44 1014.18 1014.84 1015.40 1015.89 1016.30 1016.68 1017.05 1017.43 1017.82 1018.24 1018.67 1019.09 1019.49 1019.87 1020.22 1020.55 1020.87 1021.19 1021.51 1021.84
1004.81 1004.68 1004.70 1004.81 1004.93 1004.99 1004.94 1004.75 1004.45 1004.07 1003.69 1003.39 1003.23 1003.25 1003.47 1003.86 1004.38 1004.99 1005.63 1006.28 1006.91 1007.54 1008.18 1008.86 1009.59 1010.39 1011.23 1012.09 1012.93 1013.73 1014.45 1015.09 1015.64 1016.12 1016.56 1016.97 1017.39 1017.82 1018.25 1018.68 1019.10 1019.49 1019.84 1020.17 1020.47 1020.76 1021.06 1021.37 1021.69
1004.43 1004.35 1004.36 1004.41 1004.44 1004.38 1004.21 1003.94 1003.59 1003.24 1002.95 1002.80 1002.83 1003.05 1003.45 1003.99 1004.61 1005.24 1005.85 1006.41 1006.92 1007.40 1007.90 1008.44 1009.07 1009.80 1010.60 1011.46 1012.33 1013.17 1013.96 1014.66 1015.28 1015.82 1016.32 1016.80 1017.26 1017.73 1018.19 1018.64 1019.07 1019.46 1019.81 1020.12 1020.41 1020.68 1020.96 1021.25 1021.55
1004.02 1003.97 1003.97 1003.98 1003.93 1003.79 1003.55 1003.24 1002.91 1002.63 1002.47 1002.49 1002.72 1003.14 1003.71 1004.38 1005.06 1005.70 1006.25 1006.69 1007.05 1007.36 1007.69 1008.09 1008.59 1009.22 1009.97 1010.81 1011.68 1012.55 1013.38 1014.13 1014.81 1015.42 1015.98 1016.51 1017.02 1017.54 1018.05 1018.53 1018.99 1019.40 1019.76 1020.08 1020.36 1020.62 1020.88 1021.16 1021.44
1003.55 1003.52 1003.52 1003.50 1003.42 1003.25 1003.00 1002.72 1002.47 1002.31 1002.32 1002.53 1002.95 1003.55 1004.26 1005.02 1005.73 1006.33 1006.78 1007.09 1007.28 1007.42 1007.58 1007.82 1008.20 1008.73 1009.41 1010.21 1011.07 1011.94 1012.79 1013.57 1014.29 1014.94 1015.54 1016.12 1016.69 1017.26 1017.81 1018.35 1018.84 1019.29 1019.68 1020.01 1020.30 1020.56 1020.81 1021.07 1021.34
1003.02 1003.00 1003.00 1002.99 1002.92 1002.79 1002.61 1002.43 1002.31 1002.32 1002.51 1002.91 1003.51 1004.25 1005.06 1005.85 1006.55 1007.07 1007.41 1007.56 1007.59 1007.57 1007.57 1007.67 1007.94 1008.38 1008.99 1009.74 1010.57 1011.43 1012.26 1013.05 1013.77 1014.44 1015.07 1015.68 1016.29 1016.89 1017.49 1018.08 1018.62 1019.11 1019.53 1019.89 1020.19 1020.46 1020.70 1020.95 1021.20
1002.48 1002.44 1002.46 1002.48 1002.47 1002.43 1002.38 1002.35 1002.41 1002.62 1003.01 1003.59 1004.33 1005.16 1006.02 1006.80 1007.44 1007.86 1008.07 1008.08 1007.97 1007.81 1007.69 1007.69 1007.87 1008.24 1008.79 1009.48 1010.27 1011.08 1011.88 1012.64 1013.33 1013.99 1014.61 1015.23 1015.85 1016.48 1017.12 1017.74 1018.33 1018.85 1019.31 1019.69 1020.01 1020.28 1020.52 1020.76 1021.00
1001.99 1001.92 1001.95 1002.02 1002.10 1002.19 1002.30 1002.47 1002.73 1003.15 1003.72 1004.45 1005.29 1006.18 1007.03 1007.77 1008.31 1008.62 1008.71 1008.61 1008.39 1008.14 1007.95 1007.89 1008.02 1008.35 1008.86 1009.50 1010.22 1010.97 1011.71 1012.40 1013.04 1013.64 1014.23 1014.83 1015.44 1016.08 1016.74 1017.38 1017.99 1018.54 1019.02 1019.42 1019.74 1020.01 1020.25 1020.47 1020.69
1001.62 1001.51 1001.54 1001.67 1001.85 1002.08 1002.37 1002.73 1003.20 1003.80 1004.53 1005.37 1006.27 1007.17 1007.99 1008.65 1009.10 1009.32 1009.31 1009.13 1008.86 1008.58 1008.38 1008.32 1008.44 1008.75 1009.23 1009.82 1010.48 1011.14 1011.79 1012.38 1012.94 1013.47 1013.99 1014.54 1015.12 1015.75 1016.39 1017.04 1017.65 1018.21 1018.69 1019.09 1019.41 1019.67 1019.89 1020.10 1020.30
1001.47 1001.31 1001.32 1001.48 1001.75 1002.10 1002.54 1003.08 1003.72 1004.47 1005.32 1006.23 1007.17 1008.05 1008.81 1009.40 1009.77 1009.92 1009.86 1009.67 1009.40 1009.15 1008.98 1008.96 1009.11 1009.43 1009.88 1010.43 1011.01 1011.58 1012.11 1012.60 1013.05 1013.48 1013.93 1014.41 1014.94 1015.52 1016.14 1016.77 1017.37 1017.91 1018.38 1018.76 1019.06 1019.30 1019.50 1019.68 1019.86
Thickness
5703 5709 5714 5710 5696 5692 5702 5728 5748 5753 5759 5769 5774 5773 5765 5756 5751 5738 5759 5773 5771 5766 5760 5757 5755 5753 5751 5749 5748 5746 5745 5744 5742 5741 5740 5739 5738 5736 5736 5735 5734 5733 5732 5732 5731 5730 5729 5728 5727
5699 5705 5703 5696 5685 5684 5705 5730 5741 5751 5759 5765 5767 5767 5761 5752 5757 5755 5762 5768 5767 5763 5757 5754 5752 5750 5748 5746 5744 5743 5741 5740 5739 5737 5736 5735 5734 5733 5732 5731 5730 5729 5728 5728 5727 5726 5725 5724 5723
5693 5699 5690 5686 5685 5693 5714 5737 5742 5751 5758 5757 5755 5758 5753 5748 5754 5755 5761 5765 5763 5758 5754 5750 5748 5746 5745 5743 5741 5739 5738 5737 5735 5734 5732 5731 5730 5729 5728 5726 5726 5725 5724 5723 5722 5721 5720 5720 5719
5686 5683 5683 5680 5687 5709 5724 5737 5744 5743 5748 5751 5749 5742 5745 5752 5755 5756 5760 5761 5758 5754 5749 5745 5744 5742 5740 5739 5737 5736 5734 5733 5731 5730 5729 5727 5726 5725 5723 5722 5721 5720 5719 5719 5718 5717 5716 5715 5715
5677 5672 5667 5673 5689 5712 5729 5737 5740 5735 5736 5742 5743 5734 5732 5745 5753 5754 5755 5755 5752 5749 5745 5740 5739 5737 5736 5734 5733 5731 5730 5728 5727 5726 5725 5723 5722 5720 5719 5718 5717 5716 5715 5714 5713 5712 5712 5711 5710
5661 5666 5663 5669 5688 5710 5725 5733 5732 5731 5732 5737 5737 5728 5724 5738 5743 5745 5749 5749 5748 5744 5740 5735 5733 5732 5731 5730 5728 5727 5725 5724 5723 5722 5720 5719 5717 5716 5715 5714 5712 5711 5710 5709 5708 5708 5707 5706 5706
5653 5657 5662 5676 5687 5701 5717 5727 5724 5723 5725 5731 5736 5723 5720 5728 5736 5740 5742 5743 5741 5739 5735 5731 5729 5727 5725 5724 5723 5722 5721 5719 5718 5717 5715 5714 5713 5712 5710 5709 5708 5707 5706 5705 5704 5703 5702 5701 5701
5653 5654 5660 5671 5682 5696 5714 5720 5722 5720 5720 5733 5734 5719 5714 5722 5731 5734 5734 5734 5733 5732 5730 5727 5724 5722 5721 5719 5718 5717 5715 5714 5713 5711 5710 5709 5708 5707 5706 5704 5703 5702 5701 5700 5699 5698 5698 5697 5696
5646 5641 5652 5669 5679 5691 5707 5707 5712 5719 5717 5720 5723 5722 5722 5723 5725 5723 5722 5722 5723 5723 5723 5722 5720 5718 5716 5714 5712 5711 5710 5709 5707 5706 5705 5704 5703 5702 5701 5700 5698 5698 5697 5696 5695 5694 5693 5693 5692
5633 5634 5655 5675 5683 5687 5695 5697 5700 5702 5700 5702 5706 5711 5714 5715 5714 5713 5712 5711 5712 5713 5715 5716 5715 5713 5712 5710 5707 5706 5704 5703 5703 5702 5701 5700 5699 5698 5696 5695 5694 5693 5692 5692 5691 5690 5690 5689 5688
5631 5639 5655 5667 5675 5680 5682 5687 5694 5690 5686 5695 5696 5698 5702 5705 5705 5705 5706 5707 5707 5708 5709 5709 5709 5708 5706 5705 5702 5701 5700 5699 5698 5697 5696 5696 5694 5693 5691 5690 5689 5688 5688 5687 5686 5686 5686 5685 5685
5628 5638 5648 5655 5662 5666 5669 5675 5679 5681 5685 5696 5697 5697 5697 5696 5697 5699 5700 5701 5701 5701 5701 5703 5702 5701 5701 5700 5698 5696 5695 5694 5693 5692 5691 5691 5689 5688 5686 5685 5685 5684 5683 5683 5682 5682 5682 5681 5680
5618 5629 5639 5644 5649 5655 5659 5662 5666 5672 5682 5690 5691 5689 5689 5690 5692 5694 5696 5695 5695 5694 5694 5695 5696 5695 5694 5693 5692 5690 5689 5688 5688 5687 5686 5685 5684 5682 5681 5680 5680 5679 5678 5678 5677 5677 5676 5676 5675
5614 5619 5625 5632 5638 5644 5645 5650 5656 5664 5674 5677 5678 5678 5681 5683 5685 5687 5688 5688 5687 5688 5688 5689 5689 5688 5688 5686 5685 5684 5683 5683 5682 5680 5680 5679 5678 5677 5676 5674 5674 5673 5673 5672 5672 5672 5671 5670 5669
5607 5605 5611 5620 5628 5633 5634 5633 5645 5657 5663 5664 5666 5669 5673 5676 5679 5679 5681 5682 5682 5681 5682 5681 5682 5681 5681 5680 5679 5678 5677 5676 5675 5674 5673 5672 5671 5671 5670 5669 5668 5667 5667 5666 5666 5665 5665 5664 5663
5592 5590 5592 5610 5619 5624 5619 5618 5640 5650 5652 5652 5656 5660 5663 5667 5671 5673 5675 5675 5676 5675 5674 5674 5675 5674 5673 5672 5672 5671 5670 5669 5668 5667 5666 5665 5665 5664 5663 5662 5661 5661 5660 5660 5659 5658 5657 5655 5654
5574 5577 5586 5599 5612 5615 5611 5615 5632 5642 5644 5644 5648 5651 5654 5657 5661 5664 5667 5668 5668 5668 5667 5666 5666 5666 5665 5665 5665 5664 5663 5662 5661 5660 5659 5658 5658 5657 5656 5655 5655 5654 5653 5652 5651 5650 5649 5647 5646
5567 5576 5585 5591 5602 5605 5603 5609 5620 5631 5635 5636 5640 5643 5645 5647 5651 5655 5658 5660 5660 5660 5659 5658 5658 5658 5658 5657 5656 5656 5655 5654 5654 5653 5652 5651 5651 5650 5649 5648 5648 5647 5645 5644 5643 5642 5641 5639 5638
5572 5574 5579 5587 5596 5595 5595 5601 5609 5619 5624 5626 5629 5633 5635 5639 5643 5646 5649 5650 5650 5650 5650 5649 5649 5649 5649 5648 5647 5646 5645 5645 5645 5645 5644 5644 5643 5642 5642 5641 5640 5639 5637 5636 5635 5634 5632 5630 5629
5561 5564 5569 5577 5587 5587 5587 5593 5602 5609 5613 5617 5620 5623 5626 5629 5631 5635 5637 5639 5640 5640 5641 5641 5640 5640 5640 5640 5640 5640 5639 5638 5637 5637 5636 5636 5635 5634 5634 5633 5632 5631 5630 5628 5627 5625 5622 5621 5620
5550 5555 5561 5565 5572 5577 5576 5577 5589 5599 5605 5609 5613 5616 5618 5621 5623 5625 5627 5629 5630 5631 5632 5633 5632 5632 5632 5632 5632 5631 5630 5629 5628 5627 5627 5628 5627 5627 5626 5625 5624 5623 5621 5619 5618 5617 5614 5611 5610
5538 5553 5557 5558 5553 5551 5564 5555 5578 5588 5591 5598 5602 5606 5609 5612 5614 5616 5617 5618 5620 5621 5623 5624 5624 5624 5624 5624 5624 5623 5622 5620 5620 5620 5619 5619 5619 5618 5617 5617 5616 5615 5613 5612 5610 5609 5606 5604 5600
5536 5547 5547 5548 5545 5544 5553 5550 5569 5581 5580 5588 5593 5597 5600 5602 5604 5605 5607 5608 5610 5612 5613 5614 5615 5615 5615 5615 5615 5615 5615 5614 5613 5612 5612 5611 5611 5610 5609 5608 5607 5606 5605 5603 5602 5600 5598 5596 5593
5531 5532 5533 5533 5529 5524 5545 5546 5556 5572 5581 5583 5586 5588 5590 5591 5593 5595 5596 5597 5599 5601 5603 5604 5605 5606 5606 5606 5606 5607 5606 5606 5605 5604 5603 5602 5602 5601 5601 5600 5599 5598 5596 5595 5593 5591 5590 5588 5586
5517 5511 5504 5503 5506 5519 5548 5544 5548 5565 5576 5578 5577 5578 5580 5580 5581 5582 5584 5586 5588 5590 5592 5594 5596 5596 5596 5596 5597 5598 5598 5598 5597 5596 5595 5594 5593 5593 5592 5592 5591 5589 5588 5587 5585 5583 5581 5579 5577
5507 5511 5505 5501 5505 5521 5539 5533 5539 5556 5564 5568 5568 5568 5568 5569 5570 5571 5573 5575 5577 5579 5581 5583 5585 5586 5586 5587 5587 5588 5589 5589 5588 5588 5588 5587 5585 5585 5584 5583 5582 5581 5579 5578 5576 5574 5572 5571 5569
5498 5503 5515 5510 5513 5512 5518 5526 5529 5544 5548 5551 5553 5554 5553 5555 5559 5561 5563 5565 5567 5568 5570 5573 5575 5576 5576 5577 5577 5578 5579 5579 5579 5579 5578 5577 5577 5576 5575 5574 5573 5572 5570 5569 5567 5565 5564 5562 5560
5493 5499 5496 5495 5498 5505 5514 5520 5519 5527 5532 5536 5537 5538 5540 5543 5545 5549 5552 5554 5556 5558 5559 5561 5563 5565 5565 5566 5567 5568 5568 5568 5569 5569 5568 5568 5567 5566 5565 5564 5563 5562 5561 5560 5558 5556 5554 5552 5550
5481 5484 5488 5491 5496 5497 5501 5507 5518 5522 5525 5523 5523 5524 5526 5529 5532 5536 5539 5542 5544 5546 5547 5549 5551 5553 5554 5555 5556 5557 5557 5557 5558 5558 5558 5557 5556 5556 5555 5554 5553 5552 5551 5550 5548 5546 5545 5543 5541
5475 5477 5478 5475 5480 5492 5493 5486 5507 5510 5512 5512 5511 5514 5515 5518 5520 5523 5526 5528 5531 5533 5534 5536 5538 5540 5542 5543 5545 5545 5546 5546 5546 5546 5547 5546 5546 5545 5545 5544 5543 5542 5541 5539 5538 5536 5535 5533 5531